Torna al catalogo

COSMOS 546

AttivoNavigazioneVLEO
NORAD 6350·PAYLOAD·🇷🇺 Russia

Lanciato Jan 26, 1973 da Kapustin Yar

Loading…

Prossimi Passaggi (prossime 24 ore)

TLE

AggiornatoSource: Space-Track

Epoca: Sep 13, 2026, 22:13 UTC

1  6350U 73005A   26256.92577425  .00001588  00000-0  65217-4 0  9998
2  6350  50.6345  86.0833 0014635 277.8965  82.0341 15.30443579956818

Traccia COSMOS 546 in tempo reale con AllMySat

Download on the App Store